CUBEBUG-1 (CAPITAN BETO) (39153 NORAD) Tracking and Keplerian Element Data

This shows tracking and keplerian element data for the satellite.

Feedback or suggestion? Click here.




ElementValue
Catalog39153
NameCUBEBUG-1 (CAPITAN BETO)
Epoch Orbit25968
Epoch Day47.18437009
Epoch Year2018
RAAN143.1591
Inclination97.979
Eccentricity0.0016435
Argument of Perigee342.7402
Mean Anonmoly17.3249
Mean Motion14.80339752
Decay Rate2.32E-06
L11 39153U 13018D 18047.18437009 .00000232 00000-0 37372-4 0 9999
L22 39153 97.9790 143.1591 0016435 342.7402 17.3249 14.80339752259687



Live tracking and technical data element details for CUBEBUG-1 (CAPITAN BETO) (NORAD 39153). CUBEBUG-1 (CAPITAN BETO) can be tracked NOW for your location showing map with azimuth and elevation plus other details from your city location.







IsCatalogInMostPopularTable: catalog: 39153, numindb: 391
Update: records affected: 1



GetName: 39153 CUBEBUG-1 (CAPITAN BETO)

Hit Count: updated at: Fri, 24 Jan 2025 22:49:09 GMT